Location: Peace River
(56.2330°N, 117.2830°W)
Time: 15:38:28
(UTC-07:00)

ISS - Visible Passes

Search period start: 22 February 2018 00:00
Search period end: 04 March 2018 00:00
Orbit: 402 x 407 km, 51.6° (Epoch: 23 February)

Date Brightness Start Highest point End Pass type
(mag) Time Alt. Az. Time Alt. Az. Time Alt. Az.
01 Mar -1.1 06:42:48 10° S 06:44:52 16° SSE 06:46:56 10° ESE visible
02 Mar -0.9 05:51:46 10° SSE 05:52:49 11° SE 05:53:53 10° SE visible
03 Mar -1.8 06:33:43 10° SSW 06:36:23 23° SSE 06:39:01 10° ESE visible
